Terminal Aerodrome Forecast
Issued by NWS

Home | Current Version | Previous Version | Text Only | Print | Product List | Glossary On
Versions: 1 2 3 4 5 6 7 8 9 10 11 12 13 14 15 16 17 18 19 20 21 22 23 24 25 26 27 28 29 30 31 32 33 34 35 36 37 38 39 40 41 42 43 44 45 46 47 48 49 50
000
FTAK31 PANC 301556 AAA
TAFASN
TAF AMD
PASN 301556Z 3016/3112 13005KT 1SM BR OVC002
      TEMPO 3016/3018 1/4SM FG
     FM302100 VRB03KT 3SM BR OVC005
     FM310600 12005KT 1SM BR VV002=

USA.gov is the U.S. government's official web portal to all federal, state and local government web resources and services.